Jade — 9HVS8 — position and weather

sailwx.info

Track history (hours):
 
Tides and Currents Weather Stations Pressure Air Temp Water Temp Dewpoint Dewpoint Depression Visibility Wind Speed Wind Dir Waves Ship Positions

Jade

Last reported at 2014-Oct-25 05:29 UTC. Time now 2014-Oct-25 15:23 UTC.
Position N 40°54' E 028°40'.

Length 175 m; draft 8 m.

Type: Tanker. MMSI: 256491000.

Date/timePositionNaut miles runAvg speedWind from/ knotsBaromVisibWave heightAir tempDewpointWater temp
2014-Oct-25 05:29N 40°54' E 028°40'1212.6
2014-Oct-25 04:33N 40°57' E 028°56'27712.0
2014-Oct-24 05:30N 42°20' E 034°49'6013.6
2014-Oct-24 01:07N 42°14' E 036°09'  
2014-Oct-19 16:32N 41°20' E 029°32'3210.9
2014-Oct-19 13:33N 40°59' E 028°60'1111.1
2014-Oct-19 12:33N 40°49' E 028°53'4 3.5
2014-Oct-19 11:30N 40°46' E 028°50'1 0.7
2014-Oct-19 10:06N 40°47' E 028°50'1 0.7
2014-Oct-19 09:18N 40°48' E 028°50'1 0.7
2014-Oct-19 08:27N 40°48' E 028°50'1 0.2
2014-Oct-19 05:29N 40°48' E 028°49'1211.6
2014-Oct-19 04:29N 40°37' E 028°44'0 0.2
2014-Oct-19 03:31N 40°37' E 028°43'2 1.1
2014-Oct-19 02:07N 40°39' E 028°44'4 0.5
2014-Oct-18 19:25N 40°41' E 028°48'2 0.6
2014-Oct-18 16:07N 40°40' E 028°49'0 0.6
2014-Oct-18 15:25N 40°40' E 028°50'0 0.3
2014-Oct-18 14:13N 40°40' E 028°50'1 0.5
2014-Oct-18 12:19N 40°40' E 028°49'1 0.8
2014-Oct-18 11:31N 40°41' E 028°48'3 1.1
2014-Oct-18 08:31N 40°42' E 028°45'85 6.6
2014-Oct-17 19:33N 40°29' E 026°54'1613.4
2014-Oct-17 18:19N 40°19' E 026°37'1213.1
2014-Oct-17 17:24N 40°12' E 026°23'2010.1
2014-Oct-17 15:22N 39°59' E 026°03'910.3
2014-Oct-17 14:32N 39°52' E 025°56'2 0.8
2014-Oct-17 12:17N 39°51' E 025°55'0 0.0
2014-Oct-17 10:32N 39°51' E 025°55'1410.6
2014-Oct-17 09:13N 39°39' E 025°45'12214.0
2014-Oct-17 00:33N 37°50' E 024°36'1313.5
2014-Oct-16 23:34N 37°37' E 024°30'1514.0
2014-Oct-16 22:29N 37°26' E 024°18'1913.8
2014-Oct-16 21:05N 37°08' E 024°08'713.8
2014-Oct-16 20:33N 37°01' E 024°05'1513.9
2014-Oct-16 19:27N 36°47' E 023°58'1213.4
2014-Oct-16 18:33N 36°40' E 023°46'1413.9
2014-Oct-16 17:33N 36°33' E 023°31'1614.3
2014-Oct-16 16:26N 36°24' E 023°14'32514.1
2014-Oct-15 17:22N 35°56' E 016°33'6713.9
2014-Oct-15 12:33N 35°51' E 015°11'1212.4
2014-Oct-15 11:33N 35°50' E 014°56'0 0.3
2014-Oct-15 10:32N 35°50' E 014°55'0 0.0
2014-Oct-15 09:29N 35°50' E 014°55'0 0.0
2014-Oct-15 08:32N 35°50' E 014°55'0 0.0
2014-Oct-15 07:32N 35°50' E 014°55'0 0.0
2014-Oct-15 06:32N 35°50' E 014°55'  
Track history (hours):
 
Tides and Currents Weather Stations Pressure Air Temp Water Temp Dewpoint Dewpoint Depression Visibility Wind Speed Wind Dir Waves Ship Positions

Jade

Last reported at 2014-Oct-25 05:29 UTC. Time now 2014-Oct-25 15:23 UTC.
Position N 40°54' E 028°40'.

Length 175 m; draft 8 m.

Type: Tanker. MMSI: 256491000.

Date/timePositionNaut miles runAvg speedWind from/ knotsBaromVisibWave heightAir tempDewpointWater temp
2014-Oct-25 05:29N 40°54' E 028°40'1212.6
2014-Oct-25 04:33N 40°57' E 028°56'27712.0
2014-Oct-24 05:30N 42°20' E 034°49'6013.6
2014-Oct-24 01:07N 42°14' E 036°09'  
2014-Oct-19 16:32N 41°20' E 029°32'3210.9
2014-Oct-19 13:33N 40°59' E 028°60'1111.1
2014-Oct-19 12:33N 40°49' E 028°53'4 3.5
2014-Oct-19 11:30N 40°46' E 028°50'1 0.7
2014-Oct-19 10:06N 40°47' E 028°50'1 0.7
2014-Oct-19 09:18N 40°48' E 028°50'1 0.7
2014-Oct-19 08:27N 40°48' E 028°50'1 0.2
2014-Oct-19 05:29N 40°48' E 028°49'1211.6
2014-Oct-19 04:29N 40°37' E 028°44'0 0.2
2014-Oct-19 03:31N 40°37' E 028°43'2 1.1
2014-Oct-19 02:07N 40°39' E 028°44'4 0.5
2014-Oct-18 19:25N 40°41' E 028°48'2 0.6
2014-Oct-18 16:07N 40°40' E 028°49'0 0.6
2014-Oct-18 15:25N 40°40' E 028°50'0 0.3
2014-Oct-18 14:13N 40°40' E 028°50'1 0.5
2014-Oct-18 12:19N 40°40' E 028°49'1 0.8
2014-Oct-18 11:31N 40°41' E 028°48'3 1.1
2014-Oct-18 08:31N 40°42' E 028°45'85 6.6
2014-Oct-17 19:33N 40°29' E 026°54'1613.4
2014-Oct-17 18:19N 40°19' E 026°37'1213.1
2014-Oct-17 17:24N 40°12' E 026°23'2010.1
2014-Oct-17 15:22N 39°59' E 026°03'910.3
2014-Oct-17 14:32N 39°52' E 025°56'2 0.8
2014-Oct-17 12:17N 39°51' E 025°55'0 0.0
2014-Oct-17 10:32N 39°51' E 025°55'1410.6
2014-Oct-17 09:13N 39°39' E 025°45'12214.0
2014-Oct-17 00:33N 37°50' E 024°36'1313.5
2014-Oct-16 23:34N 37°37' E 024°30'1514.0
2014-Oct-16 22:29N 37°26' E 024°18'1913.8
2014-Oct-16 21:05N 37°08' E 024°08'713.8
2014-Oct-16 20:33N 37°01' E 024°05'1513.9
2014-Oct-16 19:27N 36°47' E 023°58'1213.4
2014-Oct-16 18:33N 36°40' E 023°46'1413.9
2014-Oct-16 17:33N 36°33' E 023°31'1614.3
2014-Oct-16 16:26N 36°24' E 023°14'32514.1
2014-Oct-15 17:22N 35°56' E 016°33'6713.9
2014-Oct-15 12:33N 35°51' E 015°11'1212.4
2014-Oct-15 11:33N 35°50' E 014°56'0 0.3
2014-Oct-15 10:32N 35°50' E 014°55'0 0.0
2014-Oct-15 09:29N 35°50' E 014°55'0 0.0
2014-Oct-15 08:32N 35°50' E 014°55'0 0.0
2014-Oct-15 07:32N 35°50' E 014°55'0 0.0
2014-Oct-15 06:32N 35°50' E 014°55'  

Dump ship's entire track history